This is the latest recevied weather packets stored in our database for station/object KE0PRS. If no packets are shown the sender has not sent any weather packets the latest 10 day(s).
| Time | Temp. | Humidity | Pressure | Rain* | Wind** | Luminosity | Snow |
|---|---|---|---|---|---|---|---|
| 1777921028 | 30.56° C | 19% | 1004 hPa | 0 mm | - | 664 W/m² | - |
| 1777920725 | 30.56° C | 19% | 1004 hPa | 0 mm | - | 518 W/m² | - |
| 1777920421 | 30.56° C | 19% | 1004.1 hPa | 0 mm | - | 663 W/m² | - |
| 1777920116 | 30.56° C | 18% | 1004.2 hPa | 0 mm | - | 864 W/m² | - |
| 1777919813 | 30.56° C | 19% | 1004.1 hPa | 0 mm | - | 572 W/m² | - |
| 1777919510 | 30.56° C | 18% | 1004.2 hPa | 0 mm | - | 783 W/m² | - |
| 1777919208 | 30° C | 19% | 1004.3 hPa | 0 mm | - | 792 W/m² | - |
| 1777918905 | 30° C | 18% | 1004.4 hPa | 0 mm | - | 796 W/m² | - |
| 1777918603 | 29.44° C | 21% | 1004.4 hPa | 0 mm | - | 850 W/m² | - |
| 1777918300 | 29.44° C | 20% | 1004.5 hPa | 0 mm | - | 818 W/m² | - |
| 1777918000 | 29.44° C | 20% | 1004.5 hPa | 0 mm | - | 818 W/m² | - |
| 1777917698 | 28.89° C | 20% | 1004.6 hPa | 0 mm | - | 809 W/m² | - |
| 1777917395 | 28.89° C | 21% | 1004.4 hPa | 0 mm | - | 794 W/m² | - |
| 1777917091 | 28.89° C | 21% | 1004.4 hPa | 0 mm | - | 824 W/m² | - |
| 1777916790 | 28.89° C | 21% | 1004.7 hPa | 0 mm | - | 849 W/m² | - |
| 1777916485 | 28.89° C | 22% | 1004.9 hPa | 0 mm | - | 604 W/m² | - |
| 1777916183 | 28.33° C | 24% | 1004.8 hPa | 0 mm | - | 507 W/m² | - |
| 1777915880 | 28.33° C | 23% | 1004.8 hPa | 0 mm | - | 489 W/m² | - |
| 1777915577 | 28.33° C | 24% | 1005 hPa | 0 mm | - | 707 W/m² | - |
| 1777915273 | 28.33° C | 22% | 1004.9 hPa | 0 mm | - | 780 W/m² | - |
| 1777914969 | 27.78° C | 23% | 1005 hPa | 0 mm | - | 773 W/m² | - |
| 1777914667 | 27.78° C | 24% | 1005.2 hPa | 0 mm | - | 755 W/m² | - |
| 1777914362 | 28.33° C | 23% | 1004.9 hPa | 0 mm | - | 744 W/m² | - |
| 1777914060 | 27.78° C | 26% | 1004.9 hPa | 0 mm | - | 735 W/m² | - |
| 1777913756 | 27.78° C | 26% | 1005.1 hPa | 0 mm | - | 725 W/m² | - |
* Rain latest hour (hover to see other rain measurements)
** Current wind speed in m/s (hover to see current wind gust speed)